Temperature
18 18 18 18 18 18 18 18 18 18 18 18 18 18 18 18 18 18 18 18 18 18 18 18 18 18 18 18 18 17 17 18 18 18 18 18 18 18 17 17 17 17 17
19 18 18 18 18 18 18 18 18 18 18 18 18 18 18 18 18 18 18 18 18 18 18 18 18 18 18 18 17 17 17 17 17 17 17 17 17 17 17 17 17 17 17
19 19 18 18 18 18 18 18 18 18 18 18 18 18 18 18 18 18 18 18 18 18 18 18 18 18 17 17 17 17 17 17 17 17 17 17 17 17 17 17 17 17 17
19 19 19 18 18 18 18 18 18 18 18 18 18 18 18 18 18 18 18 18 18 18 18 18 18 18 17 17 17 17 17 17 17 17 17 17 17 17 17 17 17 17 17
19 19 19 19 18 18 18 18 18 18 18 18 18 18 18 18 18 18 18 18 18 18 18 18 17 17 17 17 17 17 17 17 17 17 17 17 17 17 17 17 17 17 17
19 19 19 19 19 19 18 18 18 18 18 18 18 18 18 18 18 18 18 18 18 18 18 17 17 17 17 17 17 17 17 17 17 17 17 17 17 17 17 17 17 17 17
19 19 19 19 19 18 18 18 18 18 18 18 18 18 18 18 18 18 18 18 18 18 18 17 17 17 17 17 17 17 17 17 17 17 17 17 17 17 17 17 17 17 17
19 19 19 19 19 18 18 18 18 18 18 18 18 18 18 18 18 18 18 18 18 17 17 17 17 17 17 17 17 17 17 17 17 17 17 17 17 17 17 17 17 17 17
19 19 19 18 18 18 18 18 18 18 18 18 18 18 18 18 18 18 18 18 17 17 17 17 17 17 17 17 17 17 17 17 17 17 17 17 17 17 17 17 17 17 17
19 19 19 19 19 18 18 18 18 18 18 18 18 18 18 18 18 18 18 17 18 17 17 17 17 17 17 17 17 17 17 17 17 17 17 17 17 17 17 17 17 17 17
19 19 19 19 19 18 18 18 18 18 18 18 18 18 18 18 18 18 17 17 17 17 17 17 17 17 17 17 17 17 17 17 17 17 17 17 17 17 17 17 17 17 17
19 19 19 19 19 18 18 18 18 18 18 18 18 18 18 18 18 18 17 17 17 17 17 17 17 17 17 17 17 17 17 17 17 17 17 17 17 17 17 17 17 17 17
19 19 19 19 19 18 18 18 18 18 18 18 18 18 18 18 18 18 18 18 17 17 17 17 17 17 17 17 17 17 17 17 17 17 17 17 17 17 17 17 17 17 17
19 19 19 19 19 18 18 18 18 18 18 18 18 18 18 18 18 18 18 17 17 17 17 17 17 17 17 17 17 17 17 17 17 17 17 17 17 17 17 17 17 17 17
19 19 19 19 19 18 18 18 18 18 18 18 18 18 18 18 18 18 18 17 17 17 17 17 17 17 17 17 17 17 17 17 17 17 17 17 17 17 17 17 17 17 17
19 19 19 19 18 18 18 18 18 18 18 18 18 18 18 18 18 18 18 18 17 17 17 17 17 17 17 17 17 17 17 17 17 17 17 17 17 17 17 17 17 17 17
20 19 19 19 18 18 18 18 18 18 18 18 18 18 18 18 18 18 18 18 17 17 17 17 17 17 17 17 17 17 17 17 17 17 17 17 17 17 17 17 17 17 17
20 19 19 19 19 18 18 18 18 18 18 18 18 18 18 18 18 18 18 18 17 17 17 17 17 17 17 17 17 17 17 17 17 17 17 17 17 17 17 17 17 17 17
20 19 19 19 19 18 18 18 18 18 18 18 18 18 18 18 17 17 18 18 17 17 17 17 17 17 17 17 17 17 17 17 17 17 17 17 17 17 17 17 17 17 17
20 19 19 19 19 18 18 18 18 18 18 18 18 18 18 18 17 17 17 17 17 17 17 17 17 17 17 17 17 17 17 17 17 17 17 17 17 17 17 17 17 17 17
20 19 19 19 19 18 18 18 18 18 18 18 18 18 17 17 17 17 17 17 17 17 17 17 17 17 17 17 17 17 17 17 17 17 17 17 17 17 17 17 17 17 17
20 20 19 19 19 18 18 18 18 18 18 18 18 18 17 17 17 17 17 17 17 17 17 17 17 17 17 17 17 17 17 17 17 17 17 17 17 17 17 17 17 17 17
20 20 19 19 19 19 18 18 18 18 18 18 18 18 17 17 17 17 17 17 17 17 17 17 17 17 17 17 17 17 17 17 17 17 17 17 17 17 17 17 17 17 17
20 20 19 19 19 18 18 18 18 18 18 18 18 18 17 17 17 17 17 17 17 17 17 17 17 17 17 17 17 17 17 17 17 16 17 17 17 17 17 17 17 17 16
20 20 19 19 19 18 18 18 18 18 18 18 17 17 17 17 17 17 17 17 17 17 17 17 17 17 17 17 17 17 17 16 17 16 16 16 17 17 17 16 16 16 16
20 20 20 19 19 19 18 18 18 18 18 17 17 17 17 17 17 17 17 17 17 17 17 17 17 17 17 17 17 16 16 16 16 16 16 16 16 16 16 16 16 16 16
Wind_Speed
2 3 7 9 10 12 13 13 14 14 15 15 15 15 14 14 14 14 14 15 16 16 16 16 16 16 15 15 16 16 16 17 16 16 16 16 16 16 16 16 16 15 16
4 5 8 9 11 12 12 13 13 14 14 14 14 14 14 14 14 14 16 16 16 16 16 16 16 15 15 15 15 16 15 16 15 16 16 15 15 15 15 16 15 14 16
5 6 9 10 11 11 12 12 13 13 13 14 14 14 14 14 14 14 15 16 15 16 15 15 16 16 15 15 15 15 15 15 14 15 14 13 13 14 14 15 15 16 15
6 6 9 10 11 11 12 12 12 12 13 13 13 13 13 13 13 14 14 15 15 15 15 15 15 15 15 14 14 14 14 14 14 13 11 11 11 13 14 14 14 15 15
6 6 8 11 11 11 11 12 11 11 12 12 12 12 12 12 13 14 14 14 14 15 14 14 15 14 14 14 13 13 13 13 13 11 11 10 10 13 14 14 14 14 14
5 6 8 10 10 10 11 11 11 11 11 11 11 11 12 12 12 13 13 13 13 13 13 13 13 13 13 12 12 12 12 12 11 10 10 10 10 13 13 13 14 14 14
5 5 7 9 10 10 10 10 10 10 10 11 11 11 11 11 12 12 12 12 12 12 12 13 12 12 11 11 10 11 11 11 10 10 9 9 10 12 13 13 13 13 13
5 5 6 8 9 9 9 9 9 10 10 10 10 10 10 10 11 11 11 11 11 11 11 12 11 11 10 10 9 9 11 11 10 9 9 8 10 11 12 13 13 13 13
5 4 4 5 6 7 8 8 8 9 8 9 9 9 10 10 10 10 9 10 10 11 11 11 10 10 10 9 9 9 9 10 9 8 8 8 10 11 12 12 13 13 12
4 3 3 4 4 5 5 7 8 8 7 7 8 8 8 9 9 9 8 9 10 9 9 9 9 9 8 8 8 8 8 8 8 7 7 9 11 11 11 11 12 12 11
3 2 2 3 3 3 3 5 6 6 6 6 6 7 6 6 6 6 6 8 9 8 8 8 7 7 7 7 7 7 7 6 7 6 7 10 11 11 11 11 11 11 11
5 3 2 3 2 2 2 3 3 4 4 4 5 5 5 5 4 4 5 7 7 6 6 6 6 6 6 5 5 5 5 6 6 6 8 10 11 11 11 11 10 10 11
5 5 4 3 3 3 2 2 2 3 3 2 3 4 4 3 3 3 3 4 4 4 4 4 5 5 4 4 4 3 4 4 5 6 8 10 10 10 11 11 10 10 11
5 5 4 4 3 3 2 1 2 2 2 1 2 3 3 2 1 2 2 2 2 2 3 3 3 3 3 3 3 3 3 4 5 5 7 10 10 10 10 11 10 10 11
5 5 4 4 4 3 2 1 2 2 2 2 2 2 3 2 1 1 1 1 1 1 1 1 1 1 1 1 2 3 3 4 5 6 6 9 10 10 10 11 11 11 11
5 5 4 4 4 4 3 2 2 2 3 2 3 4 4 4 3 2 1 1 1 1 1 1 1 1 0 1 1 2 3 4 5 6 6 7 9 10 11 11 11 12 12
5 4 4 4 4 4 4 3 3 3 3 3 4 5 5 5 4 3 2 1 2 1 1 1 1 1 1 1 1 1 2 4 5 6 6 6 7 9 11 11 12 12 12
5 4 4 4 5 4 3 3 2 3 3 3 4 5 6 6 5 3 2 2 2 2 1 1 1 1 0 1 1 1 1 2 4 5 5 6 6 7 9 11 11 12 12
6 5 4 3 4 4 3 3 2 2 2 3 4 4 5 6 6 5 3 2 2 2 1 1 1 1 1 1 1 1 1 2 3 4 5 6 7 7 7 8 10 12 12
5 4 4 3 3 3 2 2 1 1 1 2 3 4 5 6 6 5 3 3 3 2 1 1 1 1 1 1 1 1 1 2 2 3 4 5 6 7 8 7 8 9 11
4 4 4 4 3 3 2 2 1 1 1 1 2 3 4 5 6 5 3 3 3 3 3 2 2 2 1 1 1 1 1 1 2 2 3 3 4 6 7 7 7 7 8
4 4 4 4 3 3 3 2 2 1 1 1 1 1 3 4 5 5 4 3 3 3 3 3 2 2 2 2 2 1 1 2 1 1 2 3 3 4 5 6 6 7 7
5 5 5 4 4 4 3 2 2 2 1 1 0 1 2 3 4 4 5 4 4 4 4 4 4 4 3 2 2 3 2 3 1 1 1 1 1 2 2 3 4 5 6
5 4 4 3 3 3 3 3 3 2 2 2 2 1 1 1 2 3 4 4 4 3 4 4 4 3 3 3 2 2 2 3 2 1 1 1 1 1 2 2 3 4 5
5 4 4 3 2 2 3 3 2 2 2 1 1 1 1 1 2 2 3 3 3 3 3 3 3 4 3 4 3 2 2 1 2 2 2 1 1 1 2 2 2 3 3
4 4 4 4 3 3 3 3 3 3 2 1 1 1 1 1 1 2 2 3 3 3 3 3 3 4 4 3 3 3 3 3 3 3 3 2 2 1 1 1 2 2 2
Wind_Direction
150 153 121 111 105 102 100 99 100 102 104 105 107 107 107 107 106 106 108 113 116 116 116 117 116 115 118 119 120 119 118 117 117 119 118 118 118 117 116 115 113 114 116
138 137 123 114 108 104 103 102 101 101 103 104 105 106 106 107 106 105 108 112 114 115 116 116 115 116 118 119 119 119 118 117 119 119 119 118 117 117 117 117 118 120 120
116 124 123 116 111 108 106 104 103 103 103 103 105 105 107 108 109 108 110 113 115 115 116 116 117 118 120 121 120 120 120 119 119 118 115 114 117 119 120 120 122 122 122
121 120 124 121 116 113 109 106 105 105 104 104 105 105 107 109 110 112 113 114 114 114 115 116 118 119 120 120 121 121 120 118 118 115 111 115 119 122 123 124 124 123 122
113 120 131 125 121 116 112 110 109 107 107 108 107 107 107 108 111 113 113 113 113 113 114 116 118 119 119 120 120 121 121 118 117 111 110 114 120 127 128 128 126 124 124
113 125 135 128 124 119 116 114 111 108 107 106 106 107 108 109 109 111 112 111 112 114 116 118 117 118 119 120 121 122 120 119 117 114 113 118 124 130 131 130 128 127 126
118 124 135 131 126 122 119 115 112 110 109 109 109 110 110 111 110 110 111 112 113 114 115 116 116 118 119 117 120 125 126 126 122 119 120 123 129 133 134 132 130 130 130
125 122 132 133 130 126 123 118 114 112 111 112 112 112 112 112 112 111 110 110 110 112 114 113 116 117 116 117 119 127 129 129 128 127 128 131 135 137 138 137 136 135 134
111 105 105 118 124 127 125 122 117 113 111 113 114 115 115 112 111 111 112 111 110 112 115 117 117 118 119 119 121 126 132 132 132 135 140 143 145 144 143 144 144 142 140
100 103 103 97 99 106 122 130 125 119 116 116 117 117 114 112 111 110 110 113 112 111 112 114 117 117 118 120 121 126 128 132 138 142 147 155 155 154 152 152 152 148 146
142 112 111 108 112 116 135 139 130 127 124 115 114 115 102 89 93 101 112 115 111 110 113 117 120 113 111 111 113 123 124 135 143 148 159 166 164 164 162 160 159 156 155
180 191 172 155 152 149 144 113 104 105 101 95 96 102 98 93 89 95 109 112 114 108 108 110 103 97 99 102 102 112 125 138 150 162 169 171 173 174 168 165 165 165 163
190 196 187 179 167 168 143 122 110 103 102 99 108 118 114 93 76 65 65 68 75 83 79 76 73 75 87 99 106 121 139 156 166 173 175 178 182 182 178 173 173 174 173
188 201 191 178 175 178 168 148 147 136 134 141 141 140 132 113 93 77 69 63 61 65 76 76 74 69 81 103 129 146 154 170 177 181 183 186 189 190 185 183 184 183 181
191 202 197 187 185 174 172 204 173 164 163 173 172 178 169 162 162 152 118 88 62 64 84 84 88 88 91 129 157 167 170 176 184 188 190 193 195 195 194 193 193 192 191
192 191 184 186 181 166 176 188 184 185 191 186 197 204 199 192 185 177 170 168 215 190 162 159 156 141 119 140 173 178 183 185 193 194 199 201 204 204 205 205 203 201 200
181 177 180 183 170 169 183 192 183 191 190 195 211 210 204 198 199 194 179 198 224 214 155 112 99 99 102 120 171 185 191 196 195 197 201 204 207 213 213 211 212 213 212
163 166 186 185 170 177 177 180 174 177 180 200 210 209 207 205 203 197 195 218 224 201 167 138 136 114 129 151 186 223 201 205 205 203 205 208 210 217 221 220 217 218 220
168 168 175 170 167 176 170 158 162 166 183 205 206 207 206 207 205 197 205 219 206 184 176 181 159 164 184 192 210 232 232 229 224 216 214 217 216 218 223 226 227 226 226
163 163 166 163 164 161 140 118 105 115 183 213 213 213 208 209 206 196 201 205 188 176 188 170 170 176 187 194 215 296 282 252 233 227 225 223 221 222 224 229 235 236 236
158 159 168 169 171 153 144 150 163 211 216 230 230 221 215 214 206 195 202 196 185 189 202 186 170 181 202 153 111 357 339 297 246 247 236 229 229 227 225 228 233 235 239
170 172 174 186 184 181 169 159 164 176 200 218 245 237 226 219 214 209 196 198 194 189 189 192 177 175 205 172 155 148 319 330 327 276 229 224 234 227 225 228 227 229 234
178 187 191 194 192 189 170 127 100 78 57 47 290 263 254 235 228 219 204 197 198 192 203 206 192 187 203 208 188 168 178 228 292 339 303 239 227 215 224 226 229 233 232
192 181 178 178 182 176 156 157 162 174 198 222 228 241 278 265 245 228 207 202 201 199 207 215 201 197 189 210 212 212 202 176 184 264 323 295 254 239 239 235 238 239 234
177 167 167 158 170 169 161 175 181 200 210 213 218 233 283 289 264 231 205 197 201 204 212 217 204 200 199 203 202 190 194 200 195 197 245 273 312 270 245 239 246 249 244
161 159 163 172 194 185 173 179 188 201 201 202 230 233 259 278 274 256 216 202 205 208 216 221 213 206 211 208 206 196 185 187 196 196 217 231 244 277 274 246 245 246 242
Height
1519 1519 1520 1520 1521 1521 1521 1522 1522 1523 1523 1523 1524 1524 1525 1525 1525 1524 1522 1523 1526 1529 1531 1533 1535 1537 1538 1540 1542 1543 1544 1546 1547 1549 1550 1552 1553 1554 1556 1557 1558 1559 1561
1520 1521 1522 1522 1523 1524 1524 1524 1525 1525 1526 1526 1526 1527 1527 1528 1528 1527 1526 1527 1529 1532 1534 1536 1537 1539 1540 1542 1544 1545 1546 1548 1549 1551 1552 1553 1555 1556 1557 1559 1560 1561 1563
1522 1523 1524 1525 1525 1526 1526 1527 1527 1528 1528 1528 1529 1529 1530 1530 1531 1531 1531 1531 1533 1535 1536 1538 1539 1541 1543 1544 1545 1547 1548 1550 1551 1552 1554 1555 1556 1558 1559 1560 1562 1563 1564
1523 1525 1526 1527 1527 1528 1528 1529 1529 1530 1531 1531 1531 1532 1532 1533 1533 1534 1534 1535 1536 1537 1539 1540 1541 1543 1544 1546 1547 1549 1550 1551 1553 1554 1555 1556 1558 1559 1561 1562 1564 1565 1566
1525 1527 1528 1529 1529 1530 1531 1531 1532 1532 1533 1533 1534 1534 1535 1535 1536 1537 1537 1538 1539 1540 1541 1542 1544 1545 1546 1548 1549 1551 1552 1553 1554 1556 1557 1558 1559 1561 1562 1564 1565 1566 1568
1527 1529 1530 1531 1532 1532 1533 1533 1534 1535 1535 1536 1536 1537 1537 1538 1538 1539 1540 1541 1541 1542 1543 1544 1546 1547 1549 1550 1551 1552 1554 1555 1556 1557 1558 1560 1561 1563 1564 1565 1567 1568 1569
1530 1531 1532 1533 1534 1535 1535 1536 1536 1537 1537 1538 1538 1539 1540 1540 1541 1541 1542 1543 1544 1545 1546 1547 1548 1549 1551 1552 1553 1554 1555 1556 1558 1559 1560 1561 1563 1564 1566 1567 1568 1569 1571
1532 1533 1534 1535 1536 1537 1537 1538 1539 1539 1540 1540 1541 1541 1542 1542 1543 1544 1544 1545 1546 1547 1548 1549 1550 1552 1553 1554 1555 1556 1557 1558 1559 1560 1561 1563 1564 1566 1567 1568 1570 1571 1572
1534 1535 1536 1537 1538 1539 1540 1540 1541 1541 1542 1542 1543 1543 1544 1544 1545 1546 1547 1547 1548 1549 1550 1551 1552 1554 1555 1556 1557 1558 1558 1559 1561 1562 1563 1564 1565 1567 1568 1569 1571 1572 1573
1536 1537 1538 1539 1540 1541 1541 1542 1543 1543 1544 1544 1545 1545 1546 1546 1547 1548 1549 1549 1550 1551 1552 1553 1554 1555 1556 1557 1558 1559 1560 1561 1562 1563 1564 1565 1566 1568 1569 1570 1572 1573 1574
1538 1539 1540 1541 1542 1542 1543 1544 1544 1545 1545 1546 1547 1547 1548 1548 1549 1550 1551 1552 1552 1553 1554 1555 1556 1557 1558 1559 1560 1560 1561 1562 1563 1564 1564 1566 1567 1568 1570 1571 1572 1574 1575
1538 1540 1541 1542 1543 1544 1545 1545 1546 1547 1547 1548 1548 1549 1549 1550 1551 1552 1553 1553 1554 1555 1556 1557 1558 1559 1560 1560 1561 1562 1563 1563 1564 1565 1565 1566 1568 1569 1570 1572 1573 1574 1576
1539 1541 1542 1543 1544 1545 1546 1547 1548 1548 1549 1550 1550 1551 1551 1552 1553 1553 1554 1555 1556 1556 1557 1558 1559 1560 1561 1562 1563 1563 1564 1564 1565 1566 1567 1567 1568 1570 1571 1572 1573 1575 1576
1540 1541 1542 1543 1545 1546 1547 1548 1549 1549 1550 1551 1552 1552 1553 1554 1554 1555 1556 1556 1557 1558 1558 1559 1560 1561 1562 1563 1564 1564 1565 1565 1566 1566 1567 1568 1569 1570 1571 1572 1573 1575 1576
1541 1542 1543 1544 1545 1547 1548 1549 1550 1551 1552 1552 1553 1554 1555 1555 1556 1557 1557 1558 1558 1559 1560 1560 1561 1562 1563 1564 1564 1565 1566 1566 1566 1567 1568 1569 1569 1570 1571 1572 1573 1574 1575
1541 1542 1543 1545 1546 1547 1548 1549 1550 1551 1552 1553 1554 1555 1555 1556 1557 1558 1558 1559 1559 1560 1560 1561 1562 1563 1564 1564 1565 1565 1566 1566 1567 1567 1568 1569 1569 1570 1571 1572 1573 1574 1575
1541 1542 1544 1545 1546 1547 1548 1549 1550 1551 1552 1553 1554 1555 1556 1557 1557 1558 1559 1559 1560 1560 1561 1562 1562 1563 1564 1564 1565 1565 1566 1566 1567 1567 1568 1568 1569 1570 1571 1572 1572 1573 1574
1541 1542 1544 1545 1546 1547 1548 1549 1550 1551 1552 1553 1554 1555 1556 1556 1557 1558 1559 1559 1560 1560 1561 1562 1562 1563 1563 1564 1565 1565 1565 1566 1566 1567 1567 1568 1568 1569 1570 1571 1571 1572 1572
1541 1542 1543 1544 1545 1547 1548 1549 1550 1551 1552 1553 1554 1554 1555 1556 1557 1558 1558 1559 1559 1560 1561 1561 1562 1562 1562 1563 1564 1564 1564 1565 1565 1566 1566 1567 1567 1568 1569 1569 1570 1570 1571
1541 1542 1543 1544 1545 1546 1547 1548 1549 1550 1551 1552 1553 1554 1555 1555 1556 1557 1558 1558 1559 1559 1560 1560 1561 1561 1562 1562 1563 1563 1563 1564 1564 1564 1565 1565 1566 1566 1567 1568 1568 1569 1569
1541 1542 1543 1544 1545 1545 1546 1547 1547 1549 1550 1551 1552 1553 1554 1554 1555 1556 1557 1557 1558 1558 1559 1559 1560 1560 1561 1561 1561 1561 1562 1562 1562 1562 1563 1563 1564 1564 1565 1566 1566 1567 1567
1540 1541 1542 1543 1544 1545 1546 1547 1547 1548 1549 1550 1551 1552 1552 1553 1554 1555 1555 1556 1556 1557 1558 1558 1559 1559 1559 1559 1560 1560 1560 1561 1560 1560 1561 1561 1562 1562 1563 1563 1564 1564 1565
1539 1540 1542 1543 1544 1545 1546 1546 1547 1548 1548 1549 1550 1550 1551 1552 1552 1553 1553 1554 1555 1555 1556 1556 1557 1557 1557 1558 1558 1559 1558 1558 1558 1558 1558 1559 1559 1560 1561 1561 1561 1562 1562
1538 1540 1541 1543 1544 1545 1545 1546 1546 1547 1547 1548 1548 1549 1550 1550 1550 1551 1551 1552 1552 1553 1554 1554 1555 1555 1555 1555 1555 1556 1557 1556 1557 1556 1556 1557 1557 1558 1558 1558 1559 1559 1559
1538 1540 1541 1542 1543 1544 1544 1545 1545 1546 1546 1546 1547 1547 1548 1548 1548 1549 1549 1550 1550 1551 1552 1552 1552 1552 1552 1552 1552 1553 1553 1554 1554 1554 1554 1554 1555 1555 1555 1556 1556 1556 1556
1537 1539 1540 1541 1542 1542 1543 1543 1544 1544 1545 1545 1545 1545 1546 1546 1547 1547 1547 1548 1548 1549 1549 1549 1549 1549 1549 1549 1549 1550 1550 1551 1551 1551 1551 1551 1551 1552 1552 1553 1553 1553 1553